Location: Newark
(42.8481°N, 0.4872°E)
Time: 16:40:45
(UTC+00:00)

A-11 Canister half - Pass Details

Date: 30 October 2020
Orbit: 1525 x 1683 km, 47.3° (Epoch: 22 November)

Event Time Altitude Azimuth Distance (km) Brightness Sun altitude
Rises 13:28:33 0° 226° (SW) 4,819 12.7 28.1°
Reaches altitude 10° 13:31:44 10° 224° (SW) 3,813 12.7 27.8°
Maximum altitude 13:41:13 64° 145° (SE) 1,705 9.9 26.8°
Drops below altitude 10° 13:50:26 10° 67° (ENE) 3,716 10.6 25.9°
Sets 13:53:29 0° 65° (ENE) 4,690 11.1 25.6°
